RYR4982 LGTS-LGSA

Flight info

Callsign RYR4982
Flight time 0h 49m
Altitude 31000
Route LEKPO UL617 SKP UM749 ATV UP169 MANOK UL612 RUSOS
Aircraft B738/M-SDE2E3FGHIRWXY/LB1

Departure

Time 2026-05-08 17:44
Airport Thessaloniki Macedonia International Airport (LGTS)

Arrival

Time 2026-05-08 18:34
Airport Chania International Airport (LGSA)
Time Latitude Longitude Altitude Speed Heading
2026-05-08 17:15 40.52103 22.98448 30 ft 0 kts 73°
2026-05-08 17:35 40.52102 22.98443 30 ft 1 kts 70°
2026-05-08 17:35 40.52097 22.98428 30 ft 3 kts 18°
2026-05-08 17:36 40.52085 22.98431 30 ft 3 kts 351°
2026-05-08 17:36 40.52069 22.98429 30 ft 2 kts 24°
2026-05-08 17:36 40.52053 22.98416 30 ft 3 kts 46°
2026-05-08 17:36 40.52043 22.98396 30 ft 3 kts 78°
2026-05-08 17:37 40.52042 22.98371 30 ft 3 kts 100°
2026-05-08 17:37 40.52044 22.98355 30 ft 1 kts 104°
2026-05-08 17:37 40.52045 22.98352 30 ft 0 kts 104°
2026-05-08 17:39 40.52038 22.98390 30 ft 13 kts 103°
2026-05-08 17:39 40.52009 22.98554 30 ft 20 kts 104°
2026-05-08 17:39 40.51965 22.98688 30 ft 11 kts 161°
2026-05-08 17:39 40.51912 22.98679 30 ft 0 kts 193°
2026-05-08 17:40 40.51866 22.98666 30 ft 12 kts 187°
2026-05-08 17:41 40.51795 22.98701 30 ft 9 kts 185°
2026-05-08 17:41 40.51791 22.98700 30 ft 0 kts 192°
2026-05-08 17:42 40.51762 22.98692 30 ft 11 kts 192°
2026-05-08 17:42 40.51683 22.98632 30 ft 11 kts 262°
2026-05-08 17:42 40.51684 22.98624 30 ft 0 kts 282°
2026-05-08 17:43 40.51684 22.98623 30 ft 0 kts 282°
2026-05-08 17:43 40.51688 22.98600 30 ft 11 kts 283°
2026-05-08 17:44 40.51756 22.98243 30 ft 73 kts 285°
2026-05-08 17:44 40.51932 22.97325 30 ft 133 kts 283°
2026-05-08 17:44 40.52179 22.96011 334 ft 157 kts 284°
2026-05-08 17:44 40.52427 22.94610 1107 ft 155 kts 283°
2026-05-08 17:45 40.52672 22.93196 1774 ft 167 kts 283°
2026-05-08 17:45 40.52949 22.91599 2219 ft 191 kts 283°
2026-05-08 17:45 40.53274 22.89767 2591 ft 218 kts 283°
2026-05-08 17:45 40.53646 22.87703 3018 ft 239 kts 282°
2026-05-08 17:46 40.53693 22.85522 3816 ft 241 kts 257°
2026-05-08 17:46 40.52959 22.83534 4556 ft 248 kts 230°
2026-05-08 17:46 40.51565 22.82129 5224 ft 259 kts 204°
2026-05-08 17:46 40.49827 22.81683 6098 ft 261 kts 178°
2026-05-08 17:47 40.48049 22.82143 6994 ft 265 kts 162°
2026-05-08 17:47 40.46339 22.83156 7830 ft 271 kts 156°
2026-05-08 17:47 40.44609 22.84226 8667 ft 276 kts 156°
2026-05-08 17:47 40.43436 22.84957 9221 ft 280 kts 157°
2026-05-08 17:48 40.41076 22.86429 10276 ft 287 kts 158°
2026-05-08 17:48 40.39242 22.87574 10958 ft 297 kts 159°
2026-05-08 17:48 40.37321 22.88770 11472 ft 313 kts 159°
2026-05-08 17:48 40.35287 22.90037 11828 ft 333 kts 160°
2026-05-08 17:49 40.33104 22.91394 12137 ft 354 kts 160°
2026-05-08 17:49 40.30829 22.92804 12399 ft 374 kts 160°
2026-05-08 17:49 40.28428 22.94285 12744 ft 389 kts 160°
2026-05-08 17:49 40.25909 22.95841 13355 ft 396 kts 160°
2026-05-08 17:50 40.23416 22.97380 14042 ft 400 kts 159°
2026-05-08 17:50 40.20877 22.98947 14739 ft 405 kts 159°
2026-05-08 17:50 40.18318 23.00525 15442 ft 409 kts 159°
2026-05-08 17:50 40.15741 23.02124 16102 ft 414 kts 159°
2026-05-08 17:51 40.13114 23.03754 16770 ft 417 kts 159°
2026-05-08 17:51 40.10470 23.05393 17387 ft 422 kts 159°
2026-05-08 17:51 40.07809 23.07037 18001 ft 426 kts 159°
2026-05-08 17:51 40.05090 23.08717 18589 ft 430 kts 159°
2026-05-08 17:52 40.02333 23.10417 19144 ft 434 kts 159°
2026-05-08 17:52 39.99614 23.12092 19684 ft 438 kts 159°
2026-05-08 17:52 39.94018 23.15536 20675 ft 448 kts 160°
2026-05-08 17:53 39.91186 23.17275 21169 ft 452 kts 160°
2026-05-08 17:53 39.88332 23.19024 21646 ft 456 kts 160°
2026-05-08 17:53 39.85442 23.20794 22100 ft 460 kts 160°
2026-05-08 17:53 39.82534 23.22573 22518 ft 464 kts 160°
2026-05-08 17:54 39.79613 23.24359 22930 ft 468 kts 161°
2026-05-08 17:54 39.76617 23.26189 23077 ft 478 kts 161°
2026-05-08 17:54 39.73581 23.28041 23315 ft 484 kts 161°
2026-05-08 17:54 39.70516 23.29910 23650 ft 487 kts 161°
2026-05-08 17:55 39.67423 23.31795 23973 ft 490 kts 161°
2026-05-08 17:55 39.64338 23.33671 24315 ft 493 kts 161°
2026-05-08 17:55 39.61213 23.35572 24646 ft 495 kts 161°
2026-05-08 17:55 39.58100 23.37461 24978 ft 497 kts 161°
2026-05-08 17:56 39.54952 23.39371 25318 ft 499 kts 161°
2026-05-08 17:56 39.51790 23.41287 25593 ft 502 kts 161°
2026-05-08 17:56 39.48667 23.43178 25873 ft 503 kts 161°
2026-05-08 17:56 39.45487 23.45111 26186 ft 504 kts 161°
2026-05-08 17:57 39.42316 23.47034 26587 ft 502 kts 161°
2026-05-08 17:57 39.39153 23.48946 26938 ft 501 kts 161°
2026-05-08 17:57 39.35994 23.50851 27323 ft 500 kts 161°
2026-05-08 17:57 39.32775 23.52789 27708 ft 499 kts 162°
2026-05-08 17:58 39.29657 23.54663 28080 ft 498 kts 162°
2026-05-08 17:58 39.26519 23.56547 28458 ft 497 kts 162°
2026-05-08 17:58 39.23388 23.58425 28841 ft 496 kts 162°
2026-05-08 17:58 39.20215 23.60084 29227 ft 488 kts 168°
2026-05-08 17:59 39.18079 23.60958 29581 ft 482 kts 171°
2026-05-08 17:59 39.13739 23.62228 29999 ft 476 kts 178°
2026-05-08 17:59 39.11511 23.62644 30259 ft 473 kts 180°
2026-05-08 17:59 39.08249 23.63108 30636 ft 470 kts 181°
2026-05-08 18:00 39.05015 23.63552 30961 ft 471 kts 181°
2026-05-08 18:00 38.95204 23.64967 31027 ft 471 kts 181°
2026-05-08 18:01 38.88659 23.65931 31032 ft 471 kts 181°
2026-05-08 18:01 38.82205 23.66880 31035 ft 470 kts 181°
2026-05-08 18:02 38.75693 23.67837 31040 ft 471 kts 181°
2026-05-08 18:02 38.69176 23.68795 31043 ft 471 kts 181°
2026-05-08 18:03 38.62644 23.69750 31048 ft 472 kts 181°
2026-05-08 18:03 38.56110 23.70707 31051 ft 472 kts 181°
2026-05-08 18:04 38.49645 23.71654 31055 ft 472 kts 181°
2026-05-08 18:04 38.43121 23.72610 31057 ft 472 kts 181°
2026-05-08 18:05 38.36567 23.73564 31059 ft 473 kts 181°
2026-05-08 18:05 38.30064 23.74509 31060 ft 473 kts 181°
2026-05-08 18:06 38.23513 23.75457 31061 ft 473 kts 181°
2026-05-08 18:06 38.16978 23.76403 31061 ft 472 kts 181°
2026-05-08 18:07 38.10441 23.77340 31064 ft 473 kts 181°
2026-05-08 18:07 38.03899 23.78270 31067 ft 473 kts 181°
2026-05-08 18:08 37.97309 23.79207 31073 ft 473 kts 181°
2026-05-08 18:08 37.90760 23.80136 31077 ft 473 kts 181°
2026-05-08 18:09 37.84269 23.81132 31078 ft 474 kts 180°
2026-05-08 18:09 37.77721 23.82904 31079 ft 482 kts 172°
2026-05-08 18:10 37.71199 23.85160 31079 ft 490 kts 172°
2026-05-08 18:10 37.64606 23.87455 31079 ft 491 kts 172°
2026-05-08 18:11 37.58012 23.89745 31081 ft 492 kts 172°
2026-05-08 18:11 37.51366 23.92048 31083 ft 492 kts 172°
2026-05-08 18:12 37.44809 23.94320 31085 ft 492 kts 172°
2026-05-08 18:12 37.38208 23.96613 31093 ft 491 kts 172°
2026-05-08 18:13 37.31633 23.98888 31099 ft 491 kts 172°
2026-05-08 18:13 37.25036 24.01165 31101 ft 491 kts 172°
2026-05-08 18:14 37.18398 24.03451 31103 ft 491 kts 172°
2026-05-08 18:14 37.11848 24.05703 31105 ft 490 kts 171°
2026-05-08 18:15 37.05268 24.07960 31107 ft 490 kts 171°
2026-05-08 18:15 36.98679 24.10216 31110 ft 490 kts 171°
2026-05-08 18:16 36.92133 24.12454 31111 ft 491 kts 171°
2026-05-08 18:16 36.85543 24.14702 31111 ft 490 kts 171°
2026-05-08 18:17 36.78984 24.16936 31101 ft 488 kts 171°
2026-05-08 18:17 36.72443 24.19162 31075 ft 487 kts 171°
2026-05-08 18:18 36.69202 24.20262 30676 ft 481 kts 171°
2026-05-08 18:18 36.65944 24.21367 29680 ft 482 kts 170°
2026-05-08 18:18 36.62728 24.22458 28895 ft 480 kts 170°
2026-05-08 18:18 36.59508 24.23549 28588 ft 473 kts 170°
2026-05-08 18:19 36.56369 24.24611 28458 ft 462 kts 170°
2026-05-08 18:19 36.53333 24.25638 28349 ft 446 kts 170°
2026-05-08 18:19 36.50360 24.26646 27705 ft 443 kts 170°
2026-05-08 18:19 36.47347 24.27667 26470 ft 456 kts 170°
2026-05-08 18:20 36.44222 24.28723 25109 ft 469 kts 169°
2026-05-08 18:20 36.41033 24.29799 23805 ft 479 kts 169°
2026-05-08 18:20 36.37803 24.30886 22842 ft 480 kts 169°
2026-05-08 18:20 36.34602 24.31963 22118 ft 474 kts 169°
2026-05-08 18:21 36.31442 24.33025 21392 ft 468 kts 169°
2026-05-08 18:21 36.28329 24.34071 20649 ft 463 kts 169°
2026-05-08 18:21 36.25226 24.35096 19919 ft 456 kts 171°
2026-05-08 18:21 36.22093 24.35701 19176 ft 446 kts 180°
2026-05-08 18:22 36.19024 24.35697 18445 ft 437 kts 188°
2026-05-08 18:22 36.16032 24.35231 17746 ft 429 kts 193°
2026-05-08 18:22 36.13158 24.34525 17488 ft 412 kts 197°
2026-05-08 18:22 36.10437 24.33738 17357 ft 399 kts 198°
2026-05-08 18:23 36.07739 24.32960 17239 ft 386 kts 198°
2026-05-08 18:23 36.05203 24.32242 17150 ft 369 kts 198°
2026-05-08 18:23 36.02737 24.31550 17040 ft 348 kts 198°
2026-05-08 18:23 36.00465 24.30914 16941 ft 331 kts 198°
2026-05-08 18:24 35.98273 24.30298 16798 ft 316 kts 199°
2026-05-08 18:24 35.96146 24.29702 16618 ft 310 kts 199°
2026-05-08 18:24 35.94069 24.29121 16369 ft 306 kts 199°
2026-05-08 18:24 35.91987 24.28538 16084 ft 304 kts 199°
2026-05-08 18:25 35.89936 24.27965 15798 ft 302 kts 199°
2026-05-08 18:25 35.87887 24.27393 15514 ft 300 kts 199°
2026-05-08 18:25 35.85857 24.26826 15228 ft 298 kts 199°
2026-05-08 18:25 35.83830 24.26261 14946 ft 296 kts 199°
2026-05-08 18:26 35.81801 24.25692 14643 ft 295 kts 200°
2026-05-08 18:26 35.79849 24.25081 14378 ft 291 kts 202°
2026-05-08 18:26 35.77901 24.24423 14092 ft 289 kts 202°
2026-05-08 18:26 35.75972 24.23772 13820 ft 287 kts 202°
2026-05-08 18:27 35.74056 24.23111 13535 ft 283 kts 208°
2026-05-08 18:27 35.72966 24.22324 13333 ft 269 kts 228°
2026-05-08 18:27 35.71576 24.19865 12962 ft 258 kts 248°
2026-05-08 18:27 35.70768 24.17897 12679 ft 256 kts 247°
2026-05-08 18:28 35.69972 24.15943 12415 ft 254 kts 247°
2026-05-08 18:28 35.69183 24.14014 11969 ft 259 kts 246°
2026-05-08 18:28 35.68359 24.12001 11333 ft 269 kts 246°
2026-05-08 18:28 35.67503 24.09914 10628 ft 275 kts 245°
2026-05-08 18:29 35.66623 24.07774 9920 ft 280 kts 245°
2026-05-08 18:29 35.65734 24.05613 9197 ft 285 kts 244°
2026-05-08 18:29 35.64842 24.03449 8524 ft 287 kts 243°
2026-05-08 18:29 35.63941 24.01262 7807 ft 286 kts 243°
2026-05-08 18:30 35.62974 23.99122 7069 ft 285 kts 232°
2026-05-08 18:30 35.61417 23.97646 6346 ft 284 kts 207°
2026-05-08 18:30 35.60110 23.97198 5826 ft 274 kts 187°
2026-05-08 18:30 35.58338 23.97665 5098 ft 257 kts 155°
2026-05-08 18:31 35.57187 23.99175 4390 ft 237 kts 120°
2026-05-08 18:31 35.56976 24.01119 3662 ft 227 kts 90°
2026-05-08 18:31 35.56882 24.02996 2916 ft 214 kts 106°
2026-05-08 18:31 35.56434 24.04690 2176 ft 207 kts 113°
2026-05-08 18:32 35.55913 24.06316 1588 ft 198 kts 113°
2026-05-08 18:32 35.55491 24.07652 1415 ft 177 kts 111°
2026-05-08 18:32 35.55089 24.08993 1262 ft 160 kts 111°
2026-05-08 18:32 35.54726 24.10171 1195 ft 134 kts 110°
2026-05-08 18:33 35.54395 24.11211 907 ft 125 kts 113°
2026-05-08 18:33 35.54061 24.12239 807 ft 140 kts 111°
2026-05-08 18:33 35.53702 24.13347 564 ft 135 kts 112°
2026-05-08 18:33 35.53387 24.14317 518 ft 101 kts 112°
2026-05-08 18:34 35.53197 24.14901 518 ft 60 kts 111°
2026-05-08 18:34 35.53136 24.15118 518 ft 3 kts 45°
2026-05-08 18:34 35.53169 24.15129 518 ft 10 kts 15°
2026-05-08 18:34 35.53256 24.15163 518 ft 12 kts 23°
2026-05-08 18:35 35.53275 24.15172 518 ft 6 kts 11°
2026-05-08 18:35 35.53325 24.15078 518 ft 24 kts 293°
2026-05-08 18:35 35.53408 24.14813 518 ft 41 kts 291°
2026-05-08 18:35 35.53521 24.14470 518 ft 38 kts 291°
2026-05-08 18:36 35.53580 24.14330 518 ft 6 kts 12°
2026-05-08 18:36 35.53633 24.14357 518 ft 9 kts 22°
2026-05-08 18:36 35.53677 24.14357 518 ft 6 kts 324°
2026-05-08 18:36 35.53701 24.14303 518 ft 8 kts 292°
2026-05-08 18:37 35.53721 24.14241 518 ft 12 kts 292°
2026-05-08 18:37 35.53771 24.14180 518 ft 8 kts 35°
2026-05-08 18:37 35.53794 24.14196 518 ft 0 kts 26°
2026-05-08 18:37 35.53794 24.14197 518 ft 0 kts 26°